Pagina principale
METAR-TAF:

METAR-TAF

Aeroporti :

Luxeuil-les-Bains, Francia

latitudine: 47-47N, longitudine: 006-21E, altezza: 278 m

Osservazione

Il bollettino è stato emesso 20 minuti fa, alle 16:00 UTC
Vento 8 kt da sud-est, variando fra est/sud-est e sud
Temperature 22°C
Umidità 38%
Pressione 1016 hPa
Visibilità 10 km o più
nessuna nube inferiore a 1500 m e nessun cumulonembo

METAR: LFSX 311600Z AUTO 14008KT 120V180 CAVOK 22/07 Q1016

Ora: 18:20 (16:20 UTC)

Previsione

Il bollettino è stato emesso 2 ore e 20 minuti fa, alle 14:00 UTC
Previsione valida dal 31 alle 15 UTC al 01 alle 15 UTC
Vento 7 kt da sud-est
Visibilità 10 km o più
nessuna nube inferiore a 1500 m e nessun cumulonembo

TAF: LFSX 311400Z 3115/0115 14007KT CAVOK

Osservazioni e previsioni meteorologiche di più di 4000 aeroporti (messaggi METAR e TAF).

Le stazioni disponibili sono rappresentate dai dischi gialli e rossi sulla carta.

Puntare il mouse per vedere il nome della stazione.

Clicca sopra per visualizzare le osservazioni e previsioni meteorologiche.

Per cambiare la mappa : fare clic sui pulsanti verdi con una croce nera per ingrandire, il pulsante verde con un trattino per diminuire, o sulla freccia verde per le mappe adiacenti.


METAR-TAF: